Wetbulb
61.65 61.39 60.68 60.37 59.95 59.56 59.28 58.71 58.31 57.41 57.06 56.29 56.85 56.63 56.60 56.08 55.82 56.00 55.61 55.30 55.81 56.07 55.42 54.49 54.09 53.82 53.83 52.56 53.23 62.18 62.35 61.70 59.73 56.34 53.86 53.19 51.63 50.75 47.43 50.21 50.20 48.69 48.81 47.40 46.97 49.78 54.33
60.81 60.88 60.51 60.09 59.74 59.50 59.25 58.63 58.18 57.36 57.07 55.91 56.31 56.14 56.22 55.56 55.34 55.33 55.49 55.12 55.14 55.40 54.15 53.30 53.18 53.09 52.13 49.21 58.00 61.83 62.24 58.68 57.47 55.33 54.89 54.58 51.95 52.92 51.00 50.62 49.67 49.39 47.18 46.26 47.17 50.39 49.86
58.42 60.66 60.14 59.58 59.15 58.75 58.62 57.74 57.83 57.44 57.17 56.76 56.01 55.85 55.64 55.26 55.04 55.22 55.22 54.81 55.09 53.96 52.97 52.47 52.60 52.45 51.00 52.90 58.78 62.02 59.98 58.26 58.05 55.91 54.80 56.47 54.85 51.78 52.24 48.58 49.28 48.99 45.59 47.13 48.50 49.90 48.45
58.01 58.65 60.34 59.35 58.66 57.75 57.34 57.19 57.34 57.11 56.93 56.65 55.65 55.79 55.15 54.52 54.22 54.70 54.28 54.52 53.50 52.61 52.15 52.20 53.17 52.03 51.79 59.17 60.47 58.60 58.94 57.18 57.97 58.00 56.42 55.66 56.10 53.32 50.83 50.34 48.18 46.24 46.94 43.41 47.52 48.37 48.16
57.16 58.24 60.23 59.52 58.26 57.49 56.87 56.82 56.69 56.83 56.77 56.50 55.30 55.30 54.70 53.81 53.66 54.05 54.09 53.27 52.63 51.84 51.65 52.98 52.16 51.67 51.81 58.80 55.67 56.67 57.53 52.77 55.08 56.36 55.59 53.67 54.29 51.43 49.44 47.25 45.12 45.74 41.54 43.02 44.17 49.67 48.19
56.29 57.80 58.85 59.52 58.38 57.65 57.21 56.94 56.61 56.28 56.32 55.96 55.21 54.93 54.17 53.70 53.73 53.48 52.36 52.57 51.86 52.13 52.53 53.16 53.25 49.68 55.41 52.54 56.23 54.20 55.95 54.87 53.20 53.13 51.34 51.70 50.56 48.47 48.31 45.93 40.40 41.77 41.70 43.53 43.29 48.22 48.43
56.12 57.65 58.21 59.63 58.67 58.06 58.01 57.69 56.69 56.02 55.68 55.54 54.97 54.77 54.28 54.05 54.14 52.31 51.99 52.74 51.32 50.25 50.56 52.28 51.63 51.96 51.84 55.46 56.13 53.13 54.99 54.98 54.24 51.46 48.07 50.14 45.98 44.39 46.86 46.86 46.37 45.66 44.82 43.56 46.38 49.25 49.09
54.52 56.24 57.45 59.30 58.77 58.24 58.25 57.74 56.83 55.94 55.68 54.93 54.83 54.54 54.14 54.54 53.55 52.19 52.72 52.65 55.09 56.91 51.22 54.61 53.95 52.90 54.86 55.19 51.00 52.47 56.87 50.92 50.44 46.46 49.78 46.95 44.80 47.16 48.75 47.29 46.73 45.89 44.43 44.88 46.16 48.44 49.21
54.01 55.12 56.37 57.50 58.95 58.12 57.82 57.51 56.54 55.86 55.41 54.67 54.77 54.12 54.04 54.13 52.57 51.28 51.58 53.39 60.31 59.65 53.11 51.65 54.35 52.26 53.04 54.53 50.01 50.29 54.52 52.19 48.85 46.08 47.76 45.98 47.20 49.15 48.42 47.42 46.49 46.70 45.41 45.61 44.85 47.35 49.54
53.36 54.16 55.52 56.21 58.10 57.91 57.42 57.11 56.50 55.68 54.83 54.17 54.24 53.39 53.46 52.34 50.29 54.34 52.02 56.58 58.40 58.60 46.85 46.50 49.27 52.21 52.57 52.96 49.52 53.89 54.89 52.54 49.38 46.60 48.53 48.01 48.56 48.06 48.13 46.38 47.05 44.57 47.21 46.99 46.02 45.58 42.10
52.59 53.64 54.31 54.66 56.24 56.93 56.14 56.16 56.02 55.45 55.03 54.56 53.50 53.11 52.85 52.16 56.00 53.28 59.01 62.87 62.15 57.33 34.89 47.71 48.96 54.63 52.99 50.08 51.27 51.78 54.56 52.80 48.00 47.72 48.40 45.53 47.24 47.22 46.64 46.44 47.94 45.90 49.48 47.99 47.08 46.19 45.05
51.97 52.90 53.75 53.92 54.99 55.92 55.51 55.27 55.03 54.65 54.69 54.27 53.09 53.03 52.94 51.81 53.48 57.19 60.19 61.04 58.37 46.55 34.31 44.67 49.34 48.87 49.13 49.90 49.84 51.82 51.90 53.67 52.38 48.95 49.78 48.09 50.08 49.41 48.24 48.69 48.56 49.45 48.29 47.60 47.35 46.23 40.01
51.15 52.19 52.80 53.72 54.52 55.53 55.31 54.77 54.16 54.00 54.11 53.70 52.77 53.03 52.78 55.81 55.14 59.81 61.93 57.60 45.06 38.68 45.56 43.45 45.45 48.43 48.25 47.18 48.16 49.21 48.90 48.37 46.72 44.04 44.45 47.05 46.97 48.87 50.16 47.71 49.24 48.89 46.61 40.16 38.05 38.72 37.66
50.58 51.53 52.19 53.11 53.50 54.91 54.85 54.21 53.57 53.40 53.49 52.71 52.25 52.15 53.27 55.60 59.29 58.76 57.12 49.10 38.02 42.21 43.58 46.60 46.85 48.00 45.92 47.43 47.13 47.45 47.65 46.00 47.98 47.58 45.38 42.41 40.43 46.31 48.65 47.86 46.31 47.32 46.52 40.68 31.92 34.70 38.30
50.29 51.13 51.80 52.51 52.78 54.49 54.57 53.98 53.09 52.96 52.67 51.95 51.94 51.92 51.12 55.76 56.97 56.75 53.08 44.94 42.14 44.33 46.64 45.35 46.31 44.45 44.85 46.70 46.91 47.21 46.77 46.54 47.14 48.50 43.69 42.49 41.25 47.42 47.67 48.71 48.27 44.84 43.12 46.77 40.66 39.16 38.90
50.06 50.41 50.71 51.48 52.11 53.70 54.01 53.45 52.73 52.55 51.89 51.66 51.69 50.32 54.57 60.40 60.31 56.29 50.78 43.29 45.02 48.58 48.47 47.46 42.52 45.48 43.07 45.15 44.81 45.94 46.31 47.45 46.86 48.68 50.17 46.50 40.68 45.53 46.43 48.62 48.22 46.88 47.65 41.46 43.15 33.59 32.01
49.46 50.01 50.13 51.02 51.87 52.76 53.59 53.00 52.67 52.30 51.74 52.08 54.70 51.41 58.63 62.41 59.41 52.89 46.93 46.14 47.31 51.60 51.16 47.06 45.28 44.42 45.54 45.14 45.99 44.79 45.17 47.30 48.71 47.91 49.66 48.02 45.79 43.40 46.00 45.30 44.93 44.21 43.67 42.48 43.70 40.92 35.43
49.07 49.25 49.65 50.37 52.00 52.49 53.39 52.72 52.33 52.12 51.34 51.42 54.76 48.32 58.36 59.01 50.97 50.47 47.16 47.61 47.71 50.71 50.55 49.71 49.30 47.78 46.84 47.58 46.03 45.90 45.04 47.34 50.16 50.08 46.83 47.67 46.85 42.15 43.41 46.42 47.55 46.88 44.67 43.91 38.96 35.99 38.91
48.79 49.07 49.55 50.21 51.78 51.89 52.83 52.32 52.04 51.38 51.84 52.05 51.12 54.02 57.37 54.66 46.07 47.76 47.32 48.03 50.41 49.12 48.93 49.68 48.44 49.71 49.82 48.12 44.96 47.16 47.41 47.84 48.76 49.40 48.24 48.18 45.16 39.45 40.48 43.95 46.06 44.57 45.12 43.68 42.69 42.01 37.12
48.34 48.85 49.73 50.58 51.34 51.49 52.56 51.89 51.62 51.28 52.12 56.49 53.14 49.53 53.72 51.93 51.68 48.81 46.41 46.54 46.00 50.24 49.60 50.23 49.64 51.02 49.57 47.35 48.54 46.47 46.88 47.14 48.47 48.76 43.86 47.62 45.51 43.33 39.75 41.12 44.54 42.07 43.63 44.08 43.47 38.92 38.71
48.07 48.91 49.31 49.97 50.24 50.60 52.06 51.60 51.07 51.18 51.73 55.32 53.87 50.92 53.05 47.29 47.30 48.66 48.77 47.37 45.46 46.62 50.22 50.86 49.09 49.87 49.11 45.79 46.03 46.07 47.62 46.11 47.88 45.64 48.13 48.54 43.26 42.68 41.83 41.86 41.76 42.17 43.00 43.01 41.73 43.00 39.19
48.57 48.71 48.82 49.15 49.33 49.32 51.49 50.85 50.71 50.96 51.91 53.74 51.51 50.77 51.53 50.37 48.91 47.47 45.02 45.71 45.62 47.78 49.34 48.38 48.79 49.85 50.52 47.61 48.33 46.39 47.92 47.29 46.87 48.08 47.91 45.65 42.92 41.08 39.29 40.89 40.86 40.04 42.72 43.82 43.78 43.81 42.74
48.47 48.50 48.33 48.79 49.15 51.07 50.96 50.42 50.42 50.55 52.80 53.74 56.21 54.38 53.76 43.39 47.67 46.67 45.54 46.76 46.46 51.04 49.50 50.30 51.38 50.61 48.80 49.29 51.00 51.56 50.36 49.88 49.47 48.22 46.06 44.65 41.35 39.01 36.93 37.87 38.37 36.41 40.79 42.87 43.47 45.03 44.31
48.59 48.42 48.80 49.71 50.31 51.20 50.53 49.89 50.06 50.73 54.00 57.96 58.54 56.08 51.75 45.07 47.25 46.25 46.56 47.44 49.57 51.01 49.90 49.81 51.86 51.11 49.68 52.39 52.37 51.42 49.88 48.31 47.64 45.14 45.71 40.18 40.09 38.71 37.88 34.09 32.42 41.42 43.79 43.40 43.70 44.68 45.88
48.30 48.93 50.47 51.24 50.62 50.20 49.76 49.73 50.13 50.92 52.55 58.79 59.23 56.44 51.92 41.21 48.28 46.72 47.27 47.30 49.79 50.57 50.19 50.43 50.44 51.53 53.26 50.76 48.17 43.96 44.53 43.75 43.32 43.63 43.08 43.85 41.59 35.97 37.36 35.69 39.08 40.52 40.50 40.96 41.40 41.99 46.51
49.01 49.57 50.32 49.60 49.06 48.72 48.93 49.39 50.12 50.99 52.21 60.00 60.31 59.40 56.57 49.01 46.77 49.27 47.91 49.81 49.04 49.96 49.46 47.60 50.54 52.56 49.72 49.02 46.34 41.42 39.30 40.93 39.48 41.54 43.60 41.30 41.37 41.86 35.54 36.29 34.09 40.34 42.21 46.49 45.92 39.04 46.36
49.49 49.34 48.71 48.30 48.46 48.77 49.09 49.36 50.07 50.74 52.07 59.15 59.85 58.22 56.64 50.64 51.77 51.60 48.70 48.72 52.28 51.70 50.13 48.40 48.25 48.37 48.79 46.34 43.67 43.93 41.86 41.78 39.15 37.14 36.16 39.29 39.13 37.70 36.36 37.22 39.23 42.85 44.32 46.36 36.38 39.69 47.30
48.61 49.04 49.07 49.27 49.11 49.14 49.24 49.49 49.73 50.58 51.46 57.68 59.04 59.47 59.34 54.84 52.34 53.38 53.37 51.30 50.43 53.03 49.93 49.72 49.16 48.59 47.87 45.82 46.26 43.81 42.81 42.34 40.93 41.31 39.66 39.42 38.53 37.29 34.77 35.34 33.58 43.68 44.66 41.20 46.60 49.02 48.48
48.89 48.83 48.56 48.48 48.40 48.60 48.89 49.29 49.71 50.41 51.42 55.33 58.48 58.85 60.08 56.72 53.95 55.97 55.16 55.10 55.36 56.90 54.15 51.86 52.14 50.61 52.08 48.23 46.01 44.44 38.88 37.10 40.63 40.10 42.15 39.01 43.01 42.53 40.96 42.40 45.30 46.83 48.69 49.91 48.66 48.50 49.28
MSLP
1017.99 1018.25 1018.45 1018.67 1018.89 1018.98 1019.07 1019.21 1019.47 1019.69 1019.66 1019.86 1019.78 1019.47 1019.56 1019.35 1019.38 1019.33 1019.03 1019.02 1018.76 1018.62 1018.77 1018.82 1018.64 1018.43 1017.58 1015.55 1011.75 1010.60 1011.04 1011.50 1011.82 1011.84 1011.17 1010.77 1010.47 1010.09 1009.60 1009.45 1009.65 1009.38 1008.89 1009.29 1009.58 1009.11 1008.73
1017.46 1017.48 1017.73 1018.10 1018.22 1018.55 1018.59 1018.68 1018.87 1019.26 1019.33 1019.33 1019.52 1019.09 1019.37 1019.11 1019.17 1019.03 1018.86 1018.79 1018.58 1018.54 1018.73 1018.84 1018.75 1018.55 1017.26 1013.40 1010.27 1010.55 1011.02 1011.42 1011.11 1011.14 1010.84 1010.53 1010.11 1009.95 1009.33 1009.25 1009.04 1008.93 1009.18 1009.35 1009.48 1009.30 1009.69
1017.21 1016.87 1016.98 1017.44 1017.65 1017.89 1018.09 1018.12 1018.31 1018.88 1019.02 1019.07 1019.05 1018.81 1019.07 1018.73 1018.85 1018.69 1018.67 1018.49 1018.41 1018.55 1018.72 1018.84 1018.76 1018.24 1016.37 1011.87 1010.29 1010.62 1010.80 1010.68 1010.59 1010.48 1010.23 1010.40 1010.38 1010.13 1009.61 1009.44 1009.41 1009.15 1008.88 1009.23 1009.47 1009.40 1009.87
1016.66 1016.56 1016.32 1016.61 1016.91 1017.18 1017.46 1017.68 1018.06 1018.26 1018.78 1018.72 1018.67 1018.65 1018.76 1018.41 1018.65 1018.40 1018.49 1018.44 1018.35 1018.57 1018.83 1018.79 1018.64 1018.01 1013.77 1010.64 1010.36 1010.41 1010.28 1010.15 1010.43 1010.52 1010.54 1010.77 1010.57 1010.21 1009.81 1009.55 1009.33 1008.84 1008.66 1008.65 1009.87 1009.61 1010.27
1016.05 1016.05 1015.85 1015.88 1016.29 1016.56 1016.76 1017.08 1017.43 1017.91 1018.33 1018.53 1018.32 1018.46 1018.50 1018.32 1018.40 1018.22 1018.39 1018.48 1018.46 1018.72 1018.84 1018.72 1018.35 1017.14 1011.93 1010.34 1009.99 1009.28 1009.71 1009.24 1009.95 1010.48 1010.69 1010.70 1010.61 1009.98 1009.79 1008.88 1008.72 1008.79 1008.22 1008.72 1009.77 1010.27 1010.12
1015.33 1015.29 1015.25 1015.22 1015.52 1015.89 1016.30 1016.46 1016.73 1017.26 1017.90 1018.06 1018.13 1018.24 1018.25 1018.12 1018.12 1018.15 1018.40 1018.44 1018.67 1018.96 1018.66 1018.40 1017.66 1016.38 1011.39 1009.58 1009.09 1009.10 1008.95 1009.00 1009.14 1010.00 1010.48 1010.24 1009.74 1009.28 1008.90 1008.43 1007.68 1007.98 1008.30 1008.75 1009.35 1010.55 1010.20
1014.57 1014.70 1014.55 1014.61 1014.70 1015.19 1015.50 1015.87 1016.10 1016.64 1017.31 1017.60 1017.84 1017.96 1017.91 1017.81 1018.05 1018.11 1018.58 1018.18 1018.52 1017.96 1017.14 1014.42 1013.59 1012.42 1010.59 1009.60 1009.31 1008.68 1008.69 1008.56 1008.69 1009.10 1008.88 1009.40 1008.94 1008.44 1008.14 1008.25 1008.01 1007.99 1008.33 1008.87 1010.00 1011.03 1010.99
1013.93 1013.84 1014.04 1013.92 1014.02 1014.34 1014.80 1015.20 1015.66 1015.93 1016.60 1016.98 1017.42 1017.65 1017.55 1017.61 1018.01 1018.09 1018.14 1016.12 1014.05 1013.75 1013.19 1012.78 1012.62 1011.75 1010.54 1010.05 1008.94 1008.29 1008.39 1008.13 1008.16 1008.13 1008.70 1009.10 1008.80 1009.16 1009.02 1008.76 1008.45 1008.42 1008.79 1009.62 1010.91 1011.46 1011.16
1012.94 1013.22 1013.18 1013.38 1013.43 1013.58 1014.06 1014.57 1015.05 1015.56 1015.91 1016.51 1017.02 1017.21 1017.29 1017.38 1018.21 1018.24 1017.25 1014.89 1013.67 1013.32 1012.27 1011.70 1011.24 1010.34 1009.54 1009.65 1008.73 1008.29 1008.37 1008.28 1008.20 1008.08 1008.43 1007.97 1009.36 1009.38 1008.91 1008.84 1008.79 1009.08 1008.96 1009.86 1010.14 1011.40 1011.41
1012.06 1012.24 1012.51 1012.63 1012.84 1013.02 1013.37 1013.91 1014.39 1014.85 1015.36 1015.97 1016.65 1017.00 1017.00 1017.46 1018.31 1016.37 1015.49 1013.82 1013.89 1014.06 1011.93 1010.79 1009.93 1009.09 1009.22 1009.02 1008.95 1009.10 1008.98 1008.60 1008.76 1008.62 1008.70 1009.09 1009.69 1009.32 1009.13 1009.31 1009.65 1009.32 1010.05 1010.20 1010.61 1010.64 1010.36
1010.97 1011.40 1011.57 1011.80 1011.98 1012.37 1012.71 1013.21 1013.76 1014.31 1014.83 1015.54 1016.16 1016.54 1016.86 1016.74 1015.89 1015.40 1013.66 1013.42 1013.40 1013.40 1011.36 1010.00 1009.06 1008.79 1008.83 1008.90 1008.86 1008.95 1009.41 1008.91 1008.57 1009.11 1009.55 1009.69 1009.50 1009.59 1009.40 1009.95 1010.21 1010.35 1010.35 1010.52 1010.65 1010.39 1010.65
1010.01 1010.32 1010.85 1011.09 1011.20 1011.67 1011.86 1012.62 1013.16 1013.81 1014.37 1015.00 1015.75 1015.99 1016.79 1017.31 1016.24 1014.48 1013.94 1013.48 1012.97 1012.24 1010.24 1009.31 1008.63 1008.47 1008.52 1008.84 1009.00 1009.04 1009.05 1009.17 1009.53 1009.39 1009.35 1009.76 1010.28 1010.14 1010.26 1010.72 1010.52 1011.14 1010.84 1010.94 1010.98 1010.74 1010.39
1008.83 1009.26 1009.81 1010.23 1010.63 1010.72 1011.07 1011.76 1012.56 1013.37 1013.96 1014.53 1015.22 1015.63 1016.14 1015.56 1014.11 1014.19 1013.78 1012.82 1011.83 1010.54 1010.03 1009.02 1008.43 1008.39 1008.28 1008.76 1009.06 1009.01 1008.88 1009.04 1008.80 1009.16 1009.30 1009.91 1010.32 1010.77 1010.68 1010.74 1011.33 1011.02 1010.51 1010.46 1010.61 1010.67 1010.38
1007.71 1008.32 1008.61 1009.27 1009.68 1010.08 1010.36 1010.94 1011.89 1012.77 1013.53 1014.06 1015.01 1015.63 1015.58 1014.87 1014.43 1014.32 1013.38 1011.82 1010.41 1009.54 1008.99 1008.86 1008.45 1008.45 1008.33 1008.73 1009.16 1009.24 1009.12 1009.16 1009.61 1009.28 1009.29 1009.34 1010.40 1010.71 1010.89 1010.63 1010.43 1010.71 1010.59 1010.52 1010.83 1011.20 1010.64
1006.48 1007.23 1007.64 1008.11 1008.73 1009.22 1009.68 1010.30 1011.08 1012.18 1013.17 1013.91 1014.68 1015.80 1015.25 1013.55 1014.56 1014.80 1012.87 1010.81 1009.39 1008.93 1008.50 1008.41 1008.53 1008.25 1008.54 1008.89 1008.84 1009.08 1009.21 1009.30 1009.72 1009.74 1009.09 1009.54 1010.24 1011.11 1011.32 1011.24 1011.27 1011.30 1011.39 1011.71 1011.93 1012.72 1011.84
1005.27 1006.04 1006.70 1007.19 1007.79 1008.30 1009.03 1009.53 1010.28 1011.59 1012.71 1013.57 1013.74 1014.79 1012.56 1011.98 1013.18 1013.68 1012.17 1009.96 1009.17 1008.96 1008.64 1008.36 1007.85 1007.97 1008.07 1008.57 1008.81 1008.98 1009.32 1009.93 1010.04 1010.25 1010.11 1010.10 1010.47 1011.26 1011.61 1011.55 1011.81 1011.34 1011.83 1011.99 1012.09 1012.13 1011.56
1004.28 1005.07 1005.86 1006.32 1006.87 1007.59 1008.20 1008.85 1009.55 1010.76 1012.33 1012.86 1012.41 1012.38 1010.88 1011.45 1012.35 1011.64 1010.02 1009.20 1008.95 1008.71 1008.62 1008.26 1007.85 1008.08 1007.98 1008.49 1008.72 1008.98 1009.39 1010.26 1010.42 1010.56 1010.49 1010.37 1010.45 1011.57 1011.77 1011.19 1010.79 1011.84 1011.67 1012.25 1012.21 1012.60 1011.88
1003.37 1004.15 1004.82 1005.52 1006.20 1006.80 1007.46 1008.05 1008.93 1009.99 1011.86 1012.94 1011.26 1010.34 1010.68 1011.01 1010.89 1009.56 1008.91 1008.70 1008.69 1008.35 1008.58 1008.31 1008.09 1008.00 1008.15 1008.53 1008.78 1009.15 1009.57 1010.13 1010.84 1010.79 1010.67 1011.19 1011.04 1011.21 1011.27 1011.82 1011.88 1011.54 1011.34 1011.70 1011.92 1012.64 1012.91
1002.58 1003.22 1003.80 1004.56 1005.35 1005.93 1006.59 1007.34 1008.23 1009.59 1010.61 1011.15 1009.67 1008.93 1010.53 1010.29 1008.74 1008.64 1008.96 1008.37 1008.34 1008.12 1008.05 1008.05 1007.90 1008.08 1008.54 1008.67 1009.19 1009.61 1010.27 1011.32 1011.50 1011.38 1011.27 1011.48 1011.43 1011.43 1011.75 1012.24 1012.14 1011.64 1011.72 1011.94 1012.37 1012.61 1012.28
1001.69 1002.42 1003.03 1003.70 1004.47 1005.09 1005.66 1006.50 1007.49 1009.00 1009.08 1009.06 1008.22 1007.90 1008.88 1009.23 1008.20 1007.66 1007.92 1007.84 1007.98 1008.11 1007.96 1008.03 1008.13 1008.37 1008.64 1009.02 1009.57 1009.91 1010.66 1011.65 1012.06 1012.09 1012.25 1012.00 1011.74 1011.40 1011.36 1011.24 1011.38 1011.58 1011.60 1011.77 1011.62 1011.88 1011.40
1000.88 1001.64 1002.13 1002.75 1003.88 1004.56 1004.68 1005.67 1007.05 1008.07 1008.38 1008.88 1007.15 1005.83 1006.02 1006.93 1007.45 1007.17 1007.45 1007.45 1007.51 1007.68 1007.97 1008.00 1008.00 1008.07 1008.40 1009.06 1009.59 1010.01 1010.75 1011.71 1012.32 1012.69 1012.64 1012.39 1012.22 1012.58 1012.67 1012.69 1012.42 1011.91 1011.52 1011.57 1011.38 1011.12 1010.96
1000.22 1000.85 1001.54 1002.10 1002.25 1003.83 1003.96 1005.33 1006.49 1007.61 1008.45 1008.43 1006.16 1005.79 1006.42 1006.29 1007.12 1007.22 1007.29 1007.21 1007.18 1007.61 1007.73 1007.73 1007.81 1008.35 1008.82 1009.08 1009.12 1009.53 1010.27 1011.08 1011.40 1012.72 1012.74 1013.19 1013.37 1013.67 1013.61 1013.56 1013.17 1012.48 1011.80 1011.38 1011.17 1010.88 1010.65
999.51 1000.25 1000.77 1002.05 1002.80 1003.52 1003.59 1004.64 1006.03 1007.16 1007.28 1006.51 1006.36 1005.90 1005.16 1007.09 1006.83 1006.88 1007.09 1007.09 1007.17 1007.50 1008.43 1008.33 1008.12 1008.72 1009.45 1009.99 1010.22 1010.31 1011.06 1011.30 1011.62 1012.22 1013.03 1013.56 1014.02 1014.43 1014.31 1014.38 1013.88 1013.14 1011.43 1010.94 1010.57 1010.30 1010.17
998.78 999.36 1000.14 1001.03 1001.82 1002.59 1003.14 1004.19 1005.62 1006.28 1005.64 1004.74 1005.30 1005.10 1005.09 1006.70 1006.94 1006.77 1007.12 1007.27 1007.36 1007.58 1008.10 1008.99 1009.04 1009.28 1011.02 1011.13 1011.13 1011.43 1011.85 1012.28 1012.71 1013.43 1013.76 1014.29 1014.66 1015.13 1015.25 1015.25 1013.75 1011.49 1011.56 1011.16 1010.58 1010.25 1009.93
998.40 999.00 999.18 999.42 1000.54 1001.87 1002.85 1003.92 1004.99 1005.69 1005.38 1004.95 1005.04 1004.83 1004.99 1006.54 1006.72 1006.95 1007.20 1007.39 1008.02 1008.45 1008.88 1009.59 1010.44 1010.64 1011.19 1011.25 1011.40 1012.20 1012.74 1013.09 1013.67 1014.16 1014.45 1014.69 1014.97 1015.57 1015.71 1014.59 1012.62 1011.32 1011.55 1011.45 1010.98 1009.84 1009.87
997.67 998.37 999.17 1000.15 1000.89 1001.84 1002.49 1003.53 1004.20 1004.93 1005.29 1005.03 1004.86 1005.03 1004.71 1005.92 1006.63 1006.61 1007.03 1007.63 1007.93 1008.45 1009.59 1010.72 1011.57 1011.88 1011.91 1011.81 1011.90 1012.28 1012.57 1012.86 1013.66 1014.45 1015.14 1015.36 1015.38 1015.10 1015.69 1014.67 1012.85 1011.69 1011.85 1011.94 1011.67 1010.49 1010.55
997.36 998.18 999.08 999.88 1000.58 1001.06 1002.00 1002.90 1003.65 1004.33 1005.03 1004.85 1004.96 1005.25 1004.89 1005.51 1006.30 1006.80 1006.64 1007.22 1007.83 1008.16 1008.93 1010.55 1011.62 1012.10 1012.14 1012.02 1012.47 1012.81 1012.90 1013.30 1013.47 1014.09 1014.96 1015.45 1015.46 1015.35 1015.09 1014.26 1012.72 1011.98 1012.23 1012.29 1011.76 1011.40 1011.12
997.07 997.83 998.83 999.10 999.55 1000.59 1001.60 1002.49 1003.07 1003.91 1004.65 1004.86 1005.17 1005.41 1005.22 1005.48 1006.81 1007.06 1007.06 1007.21 1007.68 1007.56 1008.02 1010.24 1011.20 1011.64 1011.98 1012.08 1012.63 1013.14 1013.50 1013.65 1013.70 1013.79 1014.12 1014.25 1014.68 1014.90 1014.94 1013.96 1012.77 1012.28 1012.47 1012.17 1011.60 1011.39 1011.50
997.17 997.43 998.01 998.83 999.72 1000.66 1001.36 1001.93 1002.70 1003.38 1004.33 1004.23 1004.80 1005.62 1005.40 1005.88 1007.30 1007.70 1007.85 1007.84 1007.70 1006.88 1007.60 1009.29 1009.18 1009.73 1010.31 1011.29 1012.86 1013.64 1014.06 1014.44 1014.37 1013.75 1014.11 1014.00 1013.64 1013.58 1013.60 1012.43 1012.00 1012.09 1011.60 1011.68 1011.93 1011.82 1011.68
Wind_Speed
18 17 16 15 14 14 14 11 10 10 9 12 10 8 10 12 13 11 9 9 8 6 5 5 7 7 6 7 9 7 9 14 14 13 13 12 11 9 12 11 8 12 2 1 4 8 9
18 17 16 16 15 15 14 12 10 10 10 11 10 8 10 10 11 9 8 8 7 4 2 3 5 6 5 7 3 4 11 13 12 16 14 12 5 8 5 6 11 3 3 6 4 10 7
14 18 17 17 16 15 14 12 11 10 10 10 11 9 9 7 9 8 7 7 5 0 1 2 4 3 6 13 2 8 8 7 12 14 12 12 6 7 2 7 5 9 13 13 9 7 7
17 15 19 18 17 16 14 12 11 10 10 10 12 8 8 5 8 6 5 3 4 3 0 3 4 3 9 3 3 9 11 7 8 13 10 2 9 8 4 7 7 6 6 9 7 5 3
19 16 20 19 18 16 15 14 12 10 11 10 11 8 7 5 7 4 2 5 5 2 3 4 4 5 8 3 6 2 9 3 8 8 3 2 9 5 4 9 9 6 8 13 8 4 5
21 19 19 20 19 17 16 14 12 10 11 9 8 7 6 6 7 5 7 3 5 5 4 4 3 5 9 0 3 1 5 6 4 14 7 6 5 7 6 10 10 9 10 14 13 4 6
21 20 18 21 20 19 18 16 13 11 11 8 8 7 6 7 6 11 10 6 5 6 7 6 2 5 5 9 4 4 1 5 6 6 4 5 6 9 12 5 4 7 8 13 9 6 6
23 22 17 20 21 20 19 17 13 13 11 8 8 7 6 7 12 11 4 5 5 5 5 15 9 10 9 5 4 3 2 4 3 4 5 6 5 4 5 5 6 6 10 9 6 4 3
23 23 19 17 22 21 19 17 14 13 11 8 7 6 6 10 12 6 9 12 2 10 5 5 8 5 3 7 2 2 3 2 1 3 1 7 8 4 7 8 9 6 6 10 7 7 4
24 23 20 18 20 22 20 18 15 14 12 10 8 8 9 16 6 5 8 8 12 7 5 6 5 4 5 3 3 3 3 2 3 3 4 6 4 5 8 6 3 7 3 9 13 12 8
25 24 22 19 18 22 20 18 16 14 13 11 10 10 15 17 3 6 5 4 7 4 6 7 6 4 3 5 5 3 3 3 4 5 6 4 7 7 6 4 1 4 11 10 8 7 6
27 24 24 20 19 21 20 18 17 14 13 12 11 12 15 8 3 9 9 3 5 5 4 7 6 7 8 2 2 2 3 4 3 4 6 6 2 2 4 5 2 13 11 7 3 3 7
27 25 26 20 19 21 22 20 17 15 14 13 12 14 17 6 2 4 5 6 5 7 3 7 10 7 7 5 4 2 6 8 6 9 8 7 4 5 5 11 8 7 11 5 7 6 8
27 26 25 23 19 22 22 21 18 17 15 14 12 12 11 10 3 6 4 6 7 3 8 2 6 8 9 4 3 3 8 8 2 4 9 10 7 6 3 3 6 9 7 4 5 6 6
27 27 26 25 21 21 23 23 20 18 16 15 14 5 5 9 16 3 5 6 7 5 5 8 8 13 6 5 3 5 3 5 2 2 4 6 4 4 3 2 3 6 7 4 3 0 5
27 25 25 25 20 20 23 23 22 21 19 21 8 6 8 9 13 8 6 8 4 3 3 6 13 10 12 9 8 7 8 3 4 1 3 4 5 2 5 3 7 4 8 4 3 4 6
26 23 23 24 21 20 24 24 24 24 22 23 7 7 8 12 9 6 9 8 4 5 5 8 8 6 9 8 6 8 7 4 3 4 0 5 2 6 3 6 6 6 5 1 1 3 4
24 23 22 25 22 22 24 25 26 26 23 13 7 8 8 9 9 6 11 6 3 4 4 6 4 4 10 9 8 8 9 2 3 4 5 2 2 4 6 4 2 3 3 7 4 5 1
21 23 23 24 22 20 25 26 27 29 26 7 8 6 4 7 10 6 4 6 4 4 5 7 7 2 2 7 5 5 5 2 3 5 5 6 4 5 6 6 5 7 6 3 5 1 6
18 22 21 23 20 18 27 28 29 32 28 9 8 9 6 6 4 14 12 11 9 2 2 2 4 3 6 4 0 7 7 3 3 2 2 3 3 5 7 1 1 7 11 11 8 4 4
20 20 22 22 21 16 28 29 32 34 29 5 6 8 11 10 10 13 14 12 14 5 3 4 3 5 6 5 4 5 5 6 4 4 3 4 5 4 1 1 3 4 8 13 15 12 8
19 20 20 16 16 19 29 30 30 32 24 4 6 6 4 14 14 12 10 11 15 7 5 6 6 7 6 5 6 10 9 7 4 6 5 1 3 2 4 2 2 6 10 11 15 14 15
20 22 20 25 22 26 29 28 27 29 18 6 3 1 9 3 11 14 9 12 13 10 1 2 5 7 4 3 5 9 7 8 5 5 6 4 6 4 3 1 2 6 15 17 11 11 12
21 22 22 23 24 29 27 25 26 33 24 7 3 3 7 6 9 12 13 9 11 10 6 4 3 3 5 16 16 14 14 13 11 9 4 5 4 1 1 2 4 2 2 2 12 15 13
22 21 19 20 27 26 27 27 30 33 25 5 3 3 4 5 9 9 14 13 7 5 5 5 4 3 16 3 4 4 2 2 5 7 6 1 4 3 3 5 6 9 4 4 5 5 3
20 21 23 25 23 26 26 28 30 31 24 2 2 1 3 8 8 9 17 11 7 6 5 4 6 11 1 2 2 4 4 2 4 4 3 5 3 2 3 3 4 3 3 0 2 6 6
21 23 24 23 23 23 25 28 27 26 24 3 3 1 3 4 4 10 13 12 5 4 6 7 8 3 2 2 2 2 3 2 4 5 3 2 1 4 4 4 6 1 2 3 3 4 3
19 19 20 20 19 21 23 24 24 24 25 6 4 2 2 3 5 5 5 7 6 6 7 9 7 3 2 2 2 3 2 4 3 2 4 5 6 3 3 3 5 5 5 3 4 2 4
16 15 15 15 17 19 21 22 23 24 25 7 4 2 3 5 5 3 4 4 3 5 7 12 2 6 5 4 1 3 3 1 1 2 3 4 3 1 6 1 3 8 6 3 4 7 8
Wind_Direction
229 228 225 224 230 234 231 221 236 251 264 277 281 293 297 301 298 296 293 290 290 289 301 316 316 333 294 239 256 62 109 136 160 182 203 197 198 201 197 200 182 236 219 330 165 182 145
261 223 221 222 224 231 234 229 225 244 251 269 279 288 292 297 294 290 287 286 289 296 301 319 317 302 267 255 73 136 125 149 173 185 205 209 231 233 237 205 218 141 122 124 127 113 98
284 233 220 221 223 227 231 225 222 240 248 264 280 283 285 291 288 283 283 281 295 98 57 304 283 272 253 256 55 161 167 184 199 206 210 221 225 219 300 158 146 133 114 115 123 138 105
269 270 220 218 220 221 224 224 226 233 245 252 278 282 283 289 288 291 283 308 94 80 33 258 273 249 260 207 302 235 235 244 208 211 234 246 223 251 270 129 143 162 170 130 67 147 120
269 266 240 217 220 220 218 218 219 229 241 251 277 276 281 278 269 266 136 102 94 93 238 236 199 268 263 270 240 247 188 185 146 180 205 144 177 211 170 180 161 185 164 137 122 40 160
261 256 250 220 218 218 216 215 213 214 236 243 271 268 271 254 249 160 115 101 125 200 221 211 228 250 241 45 321 332 189 175 145 131 141 174 190 197 192 205 176 168 139 164 151 107 144
259 258 249 228 215 217 213 215 209 205 226 236 264 257 249 241 199 137 139 139 191 193 228 238 18 295 288 324 235 188 195 164 158 207 211 189 202 205 185 228 49 128 136 133 118 108 108
253 253 252 236 217 216 213 214 207 200 211 223 242 241 238 228 151 144 223 235 287 351 238 222 257 273 270 287 253 171 253 239 234 265 174 177 135 120 121 133 134 147 155 137 111 126 213
245 251 244 245 223 215 211 210 200 203 199 212 227 214 217 149 138 152 231 231 317 342 266 168 207 245 280 201 228 195 311 137 333 248 248 175 112 147 136 131 136 122 185 166 181 159 191
241 243 240 238 235 215 209 206 196 197 196 194 208 195 176 134 186 170 231 257 248 238 231 148 201 188 174 224 173 356 14 301 161 117 95 74 103 137 124 122 290 168 162 149 153 182 191
238 238 238 229 231 221 205 200 192 192 185 183 184 185 170 184 70 210 44 291 161 203 197 152 153 106 159 205 121 112 39 226 163 143 246 95 134 140 125 64 166 77 143 138 163 206 211
233 233 236 230 222 222 199 197 187 183 176 175 177 178 169 229 247 255 299 268 189 230 223 160 162 173 173 137 94 115 156 82 99 97 85 98 79 12 88 59 167 146 139 129 167 216 240
233 227 231 223 221 216 201 191 185 177 172 165 175 179 179 175 223 351 267 205 197 217 125 167 171 180 181 150 131 188 171 153 183 159 157 149 96 110 166 117 139 222 183 183 225 209 249
228 228 224 220 220 213 203 188 178 170 164 155 173 179 209 227 230 342 243 203 204 203 195 113 179 159 193 167 120 143 164 159 133 246 168 190 174 181 140 274 205 197 239 229 240 221 261
224 224 221 219 217 212 202 188 169 158 153 147 138 187 243 229 226 253 265 202 200 209 170 175 169 188 159 153 223 183 182 153 132 271 213 177 115 126 53 162 248 153 219 38 145 60 267
218 224 221 218 212 211 203 184 161 151 150 153 151 193 225 174 165 175 232 217 209 204 198 194 186 212 187 175 189 214 192 140 142 214 310 157 144 175 136 175 69 293 123 183 211 238 244
215 217 220 221 207 212 199 179 157 153 162 175 163 207 115 145 165 196 207 202 203 207 212 194 187 169 200 174 202 191 186 143 192 131 216 167 225 146 201 213 195 154 186 76 348 298 284
212 212 216 221 207 205 201 174 158 154 160 167 186 206 143 170 182 206 198 190 179 164 160 206 225 164 187 179 179 190 193 295 141 176 186 129 134 173 194 111 327 285 201 200 242 174 95
212 213 214 214 208 206 198 169 155 153 162 156 186 162 133 226 185 175 157 171 221 167 182 184 178 194 167 171 184 190 175 86 180 203 177 171 190 158 166 173 188 228 189 177 112 127 204
213 216 221 206 199 218 189 166 156 166 181 207 180 174 147 199 260 176 179 185 191 184 185 177 134 136 143 159 123 168 159 142 140 155 45 189 182 245 234 46 265 193 194 197 209 202 206
215 211 212 204 197 234 177 163 167 178 181 220 218 187 166 175 190 183 189 175 191 160 208 196 142 196 170 153 162 173 162 148 141 153 148 229 229 205 159 100 216 257 223 200 213 230 230
208 200 187 182 215 228 167 165 174 181 169 221 189 178 173 156 160 169 180 190 192 161 194 178 206 152 172 182 198 185 169 190 175 165 178 151 183 178 206 201 251 257 240 230 230 245 256
204 185 193 190 195 210 166 167 174 177 177 177 153 208 175 150 173 178 185 181 199 158 127 4 147 140 160 81 62 61 79 75 99 173 158 155 146 164 230 5 268 281 239 223 223 224 243
190 191 198 203 209 178 167 165 172 175 200 176 173 173 155 149 193 190 177 191 172 172 141 98 122 126 106 123 108 84 81 80 81 68 54 128 119 70 106 205 226 38 107 325 244 257 240
180 185 199 179 164 167 167 166 174 182 203 211 149 197 125 113 184 190 187 185 143 132 95 102 57 43 148 166 110 117 71 70 60 51 55 23 146 122 183 215 318 271 187 203 207 286 294
182 189 176 170 164 166 163 171 178 185 191 197 157 254 115 130 207 172 183 190 167 156 127 85 70 122 186 84 133 162 184 169 155 140 82 69 61 264 151 221 246 57 73 133 228 267 34
166 157 162 165 169 163 169 178 180 183 189 217 118 280 154 184 143 168 186 185 164 162 113 126 154 197 278 105 102 165 174 348 192 180 179 120 35 213 177 242 281 330 128 176 239 28 24
152 154 166 163 157 165 174 176 174 178 178 211 99 48 251 149 138 207 157 152 145 188 149 135 143 187 131 142 171 158 157 183 201 127 186 188 169 181 133 209 268 155 143 229 13 346 295
143 142 138 146 161 171 173 172 172 171 176 196 105 36 37 68 67 58 63 12 327 181 129 172 37 147 161 114 100 107 135 40 102 218 181 229 237 253 222 258 109 194 276 324 307 292 294